Theta_e
347 346 345 345 343 346 344 343 347 351 351 350 350 348 349 347 347 346 346 343 342 340
348 347 345 347 344 348 345 346 348 349 351 351 351 348 349 347 347 347 346 344 343 343
348 349 348 346 347 346 345 347 349 348 350 350 351 350 349 347 346 347 347 348 346 343
350 350 350 350 350 348 347 347 346 346 348 347 349 351 349 346 347 346 346 346 346 345
350 350 351 351 351 351 347 346 345 344 341 341 346 349 349 347 350 346 346 345 344 346
345 346 350 351 352 352 347 345 345 341 337 335 342 347 351 349 348 349 348 346 345 346
341 343 345 349 351 349 351 347 347 347 345 346 349 349 350 351 346 348 349 350 349 349
342 342 344 348 348 352 350 352 351 350 351 351 352 353 350 352 351 349 348 350 351 351
340 341 342 341 340 343 346 348 349 351 350 349 355 341 338 346 350 351 350 348 348 350
337 337 338 338 339 338 339 341 344 344 347 349 350 339 334 336 342 345 347 349 348 349
332 332 333 334 334 337 338 338 339 342 343 343 349 336 332 334 341 342 343 346 350 350
328 328 331 331 333 334 336 336 338 341 340 342 345 330 326 330 342 342 344 346 346 347
322 323 326 326 327 332 331 333 336 337 341 336 346 320 319 327 340 341 344 347 348 334
314 316 320 320 321 324 321 323 326 331 336 337 331 325 318 319 331 331 335 338 343 343
Wind_Speed
7 5 4 5 4 4 4 4 4 5 5 5 5 4 3 2 1 0 2 2 1 0
6 6 5 6 5 4 5 4 6 7 7 6 6 5 4 3 2 2 1 2 2 1
7 7 6 4 6 6 6 6 5 6 6 6 5 6 5 3 3 3 3 2 1 1
7 7 6 5 5 6 6 6 5 5 5 6 6 6 5 5 5 3 4 4 4 4
7 7 8 7 6 6 7 6 8 6 5 5 6 5 6 6 5 5 5 6 5 6
3 5 6 6 6 6 6 6 6 6 6 7 7 6 6 6 6 6 6 6 6 7
4 3 5 5 6 7 7 7 6 6 6 6 6 6 6 6 6 6 6 6 6 6
5 6 5 4 4 5 6 7 7 7 7 6 6 6 6 6 6 7 7 7 6 7
5 5 7 8 8 7 5 3 6 7 6 6 5 8 9 7 6 7 7 7 7 7
3 3 7 8 6 8 8 6 5 3 2 4 6 7 8 8 5 6 6 7 6 6
4 8 7 4 6 8 6 6 5 5 4 4 4 6 8 7 5 5 6 7 7 7
3 6 3 5 4 3 4 5 5 5 6 5 5 7 9 6 4 5 7 7 7 7
9 6 4 2 3 3 2 3 5 6 5 6 5 10 9 5 2 4 4 5 6 10
7 6 5 4 3 3 4 4 5 4 4 7 6 7 12 11 6 3 4 4 5 3
Wind_Direction
184 178 179 188 199 204 193 215 196 190 188 207 202 215 219 231 224 230 261 264 256 141
197 204 188 195 195 207 192 218 221 211 190 200 208 210 195 218 240 276 287 251 309 312
204 208 220 169 225 211 201 210 199 181 188 190 214 222 204 213 240 235 258 253 280 348
202 215 221 210 217 215 200 198 199 204 209 213 201 209 215 227 235 243 262 269 271 272
197 200 215 222 210 204 198 195 200 200 213 233 240 218 209 217 230 225 258 255 264 266
240 236 234 228 217 206 201 213 197 188 204 221 228 224 228 220 229 229 235 241 246 263
2 340 290 265 227 195 206 206 208 211 220 227 230 222 216 217 231 237 232 231 235 251
340 350 344 24 312 230 194 209 210 207 216 221 220 230 227 225 226 228 241 239 233 231
22 360 14 29 4 12 360 233 214 217 215 231 235 229 230 230 237 234 229 244 246 240
39 48 21 11 8 22 354 348 346 323 226 245 239 245 245 248 249 251 246 240 242 256
47 43 29 29 11 17 353 342 341 336 331 328 300 289 270 250 245 247 253 251 244 238
19 45 42 55 330 304 305 338 305 298 303 324 312 319 323 324 241 243 253 251 249 246
25 33 22 337 317 278 317 293 291 302 295 322 343 11 24 14 345 303 289 272 264 255
11 354 339 319 315 338 331 322 305 290 352 67 70 40 46 36 45 11 331 329 330 13